DAJAN LICC-EDDE

Flight info

Callsign DAJAN
Flight time N/A
Altitude 38000
Route NERAR DCT PEVIR DCT EVULI DCT GOTMO DCT BAKEP DCT ARVOD DCT BRENO M726 NARUS DCT DE457
Aircraft CL60/M-SBDE1E2E3FGHIJ1J4J5J7M3RWXYZ/LB1V1D1

Departure

Time N/A
Airport Catania-Fontanarossa Airport (LICC)

Arrival

Time 2026-05-04 16:22
Airport Erfurt-Weimar Airport (EDDE)
Time Latitude Longitude Altitude Speed Heading
2026-05-04 15:39 46.52334 11.71871 40128 ft 467 kts 330°
2026-05-04 15:39 46.54710 11.70108 40135 ft 467 kts 330°
2026-05-04 15:40 46.63401 11.63645 40138 ft 468 kts 330°
2026-05-04 15:40 46.69200 11.59320 40142 ft 468 kts 330°
2026-05-04 15:41 46.74962 11.55011 40144 ft 468 kts 330°
2026-05-04 15:41 46.80750 11.50673 40151 ft 468 kts 330°
2026-05-04 15:42 46.86563 11.46305 40152 ft 469 kts 330°
2026-05-04 15:42 46.92377 11.42017 40161 ft 471 kts 333°
2026-05-04 15:43 46.98671 11.39122 40157 ft 477 kts 347°
2026-05-04 15:43 47.05331 11.38416 40172 ft 483 kts
2026-05-04 15:44 47.12016 11.39067 40117 ft 484 kts
2026-05-04 15:44 47.18744 11.39746 40072 ft 485 kts
2026-05-04 15:45 47.25504 11.40239 40041 ft 483 kts 358°
2026-05-04 15:45 47.32213 11.40241 40052 ft 482 kts 358°
2026-05-04 15:46 47.38895 11.40247 40080 ft 483 kts 357°
2026-05-04 15:46 47.45588 11.40172 40073 ft 483 kts 357°
2026-05-04 15:47 47.52331 11.40091 40101 ft 482 kts 357°
2026-05-04 15:47 47.59021 11.40012 40062 ft 483 kts 357°
2026-05-04 15:48 47.65688 11.39570 40053 ft 480 kts 352°
2026-05-04 15:48 47.75695 11.38185 40015 ft 481 kts 352°
2026-05-04 15:49 47.82373 11.37266 39981 ft 481 kts 352°
2026-05-04 15:49 47.89018 11.36515 39985 ft 482 kts 354°
2026-05-04 15:50 47.95748 11.35941 39977 ft 481 kts 354°
2026-05-04 15:50 48.02391 11.35372 39977 ft 481 kts 354°
2026-05-04 15:51 48.09084 11.34602 39969 ft 480 kts 349°
2026-05-04 15:51 48.15709 11.33296 39968 ft 480 kts 349°
2026-05-04 15:52 48.22316 11.31997 39959 ft 480 kts 349°
2026-05-04 15:52 48.28979 11.30760 39960 ft 481 kts 351°
2026-05-04 15:53 48.35583 11.29721 39961 ft 481 kts 351°
2026-05-04 15:53 48.42264 11.28665 39954 ft 481 kts 351°
2026-05-04 15:54 48.48900 11.27613 39962 ft 481 kts 351°
2026-05-04 15:54 48.55584 11.26550 39962 ft 482 kts 351°
2026-05-04 15:55 48.62239 11.25490 39960 ft 482 kts 351°
2026-05-04 15:55 48.68910 11.24422 39960 ft 482 kts 351°
2026-05-04 15:56 48.75609 11.23346 39957 ft 482 kts 351°
2026-05-04 15:56 48.82290 11.22270 39443 ft 485 kts 351°
2026-05-04 15:57 48.85635 11.21887 38900 ft 481 kts 355°
2026-05-04 15:57 48.88990 11.21892 38311 ft 478 kts 357°
2026-05-04 15:57 48.92295 11.21920 37729 ft 477 kts 357°
2026-05-04 15:57 48.95610 11.21944 37167 ft 477 kts 357°
2026-05-04 15:58 48.98933 11.21967 36675 ft 478 kts 357°
2026-05-04 15:58 49.02273 11.21989 36224 ft 479 kts 357°
2026-05-04 15:58 49.05606 11.22011 35687 ft 480 kts 357°
2026-05-04 15:58 49.08922 11.22033 35153 ft 480 kts 357°
2026-05-04 15:59 49.12209 11.22053 34582 ft 481 kts 357°
2026-05-04 15:59 49.15599 11.22075 34048 ft 481 kts 357°
2026-05-04 15:59 49.18936 11.22095 33482 ft 484 kts 356°
2026-05-04 15:59 49.22313 11.22117 32937 ft 485 kts 356°
2026-05-04 16:00 49.25674 11.22146 32376 ft 486 kts 357°
2026-05-04 16:00 49.29071 11.22174 31812 ft 487 kts 357°
2026-05-04 16:00 49.32451 11.22203 31256 ft 486 kts 357°
2026-05-04 16:00 49.35784 11.22233 30704 ft 482 kts 356°
2026-05-04 16:01 49.39144 11.22262 30150 ft 479 kts 357°
2026-05-04 16:01 49.42439 11.22291 29604 ft 475 kts 357°
2026-05-04 16:01 49.45727 11.22319 29065 ft 471 kts 357°
2026-05-04 16:01 49.48989 11.22346 28526 ft 469 kts 357°
2026-05-04 16:02 49.52282 11.22373 27980 ft 472 kts 357°
2026-05-04 16:02 49.55553 11.22399 27435 ft 467 kts 357°
2026-05-04 16:02 49.61938 11.22416 26378 ft 454 kts 357°
2026-05-04 16:03 49.65069 11.22423 25860 ft 450 kts 357°
2026-05-04 16:03 49.68190 11.22430 25347 ft 447 kts 357°
2026-05-04 16:03 49.71250 11.22436 24825 ft 443 kts 357°
2026-05-04 16:03 49.74326 11.22443 24328 ft 440 kts 357°
2026-05-04 16:04 49.77391 11.22450 23818 ft 438 kts 357°
2026-05-04 16:04 49.83420 11.22485 22820 ft 432 kts 358°
2026-05-04 16:04 49.86394 11.22503 22327 ft 428 kts 358°
2026-05-04 16:05 49.89374 11.22521 21832 ft 425 kts 358°
2026-05-04 16:05 49.92324 11.22539 21345 ft 422 kts 358°
2026-05-04 16:05 49.98140 11.22573 20381 ft 415 kts 358°
2026-05-04 16:06 50.01008 11.22590 19907 ft 412 kts 358°
2026-05-04 16:06 50.09501 11.22641 18502 ft 403 kts 358°
2026-05-04 16:07 50.12261 11.22658 18036 ft 400 kts 358°
2026-05-04 16:07 50.20547 11.22708 16666 ft 391 kts 358°
2026-05-04 16:08 50.23248 11.22724 16218 ft 389 kts 358°
2026-05-04 16:08 50.31263 11.22772 14896 ft 381 kts 358°
2026-05-04 16:09 50.36509 11.22723 14034 ft 375 kts 354°
2026-05-04 16:09 50.41672 11.21973 13172 ft 364 kts 352°
2026-05-04 16:10 50.46601 11.21230 12357 ft 348 kts 352°
2026-05-04 16:11 50.53544 11.20182 11205 ft 321 kts 352°
2026-05-04 16:11 50.55743 11.19849 10842 ft 314 kts 352°
2026-05-04 16:12 50.62066 11.18889 9785 ft 295 kts 352°
2026-05-04 16:12 50.68059 11.19182 8761 ft 293 kts 24°
2026-05-04 16:13 50.71655 11.22203 8070 ft 290 kts 27°
2026-05-04 16:13 50.75190 11.25192 7408 ft 286 kts 27°
2026-05-04 16:14 50.78655 11.28127 6756 ft 283 kts 27°
2026-05-04 16:14 50.82104 11.31053 6108 ft 279 kts 27°
2026-05-04 16:15 50.87174 11.34904 5198 ft 255 kts
2026-05-04 16:16 50.90013 11.35493 4756 ft 237 kts
2026-05-04 16:16 50.94388 11.33829 3974 ft 212 kts 308°
2026-05-04 16:17 50.95269 11.29403 3972 ft 214 kts 277°
2026-05-04 16:18 50.95810 11.22527 3968 ft 213 kts 277°
2026-05-04 16:18 50.96000 11.20183 3801 ft 214 kts 277°
2026-05-04 16:19 50.96530 11.13741 3049 ft 186 kts 278°
2026-05-04 16:19 50.96862 11.09702 2519 ft 173 kts 278°
2026-05-04 16:20 50.97241 11.05055 1979 ft 128 kts 278°
2026-05-04 16:20 50.97467 11.02285 1639 ft 125 kts 277°
2026-05-04 16:21 50.97796 10.98119 1160 ft 128 kts 278°
2026-05-04 16:22 50.97996 10.95656 1032 ft 67 kts 276°
2026-05-04 16:22 50.97917 10.94910 1030 ft 18 kts 157°
2026-05-04 16:23 50.97787 10.95545 1031 ft 22 kts 98°
2026-05-04 16:24 50.97693 10.96434 1031 ft 7 kts 186°
2026-05-04 16:25 50.97582 10.96372 1031 ft 8 kts 268°
2026-05-04 16:26 50.97586 10.96295 1031 ft 0 kts 277°